Date,TemperatureHighF,TemperatureAvgF,TemperatureLowF,DewpointHighF,DewpointAvgF,DewpointLowF,HumidityHigh,HumidityAvg,HumidityLow,PressureMaxIn,PressureMinIn,WindSpeedMaxMPH,WindSpeedAvgMPH,GustSpeedMaxMPH,PrecipitationSumIn
2013-3-1,40,37,32,28,25,21,69,62,53,29.91,29.73,15,3,15,0.00
2013-3-2,35,31,29,22,20,17,68,61,52,29.91,29.82,15,2,15,0.00
2013-3-3,37,31,28,19,17,12,66,55,41,29.95,29.83,22,4,22,0.00
2013-3-4,42,32,25,17,14,10,62,47,29,30.05,29.94,19,4,19,0.00
2013-3-5,49,40,31,31,19,12,95,45,24,30.06,29.76,18,3,18,0.00
2013-3-6,38,34,32,34,32,28,99,89,70,30.03,29.65,16,2,16,0.37
2013-3-7,42,38,35,30,28,25,76,65,54,30.18,30.02,14,3,14,0.31
2013-3-8,43,37,34,29,26,24,74,64,56,30.32,30.16,21,4,21,0.00
2013-3-9,54,38,26,29,25,18,90,62,25,30.38,30.24,6,1,6,0.00
2013-3-10,59,46,30,35,28,24,81,54,32,30.29,30.14,20,3,20,0.00
2013-3-11,57,50,42,48,37,24,79,61,38,30.14,29.81,23,5,23,0.00
2013-3-12,56,49,39,53,42,27,99,75,54,29.97,29.71,24,4,27,0.77
2013-3-13,46,38,30,32,24,14,83,58,31,30.07,29.90,27,5,27,0.00
2013-3-14,32,31,30,20,17,15,63,54,48,30.08,30.06,19,5,20,0.00
2013-3-18,36,32,30,32,30,28,99,94,73,30.28,29.88,5,2,13,0.24
2013-3-19,56,42,32,41,25,6,100,63,18,29.92,29.70,16,5,36,0.31
2013-3-20,50,41,32,29,13,7,77,34,19,29.97,29.75,13,6,25,0.00
2013-3-21,35,30,26,28,13,6,75,49,31,29.91,29.78,10,4,25,0.00
2013-3-22,46,34,26,20,15,9,66,45,30,30.00,29.87,10,4,20,0.00
2013-3-23,53,39,22,25,19,16,84,49,23,30.03,29.90,7,2,15,0.00
2013-3-24,40,33,28,31,25,21,97,73,46,29.99,29.61,5,1,11,0.00
2013-3-25,33,32,31,33,31,31,98,98,97,29.62,29.52,4,0,4,0.00
2013-3-26,46,38,32,32,29,26,98,71,47,30.02,29.70,7,2,18,0.18
2013-3-27,46,39,35,34,27,23,77,60,43,30.13,30.00,14,5,25,0.00
2013-3-28,47,41,36,29,27,24,69,58,48,30.23,30.09,18,3,18,0.00
2013-3-29,55,45,37,34,28,21,77,54,27,30.25,30.12,16,2,16,0.00
2013-3-30,58,45,33,31,26,18,74,49,22,30.23,30.07,12,2,12,0.00
2013-3-31,50,44,38,48,39,26,98,82,56,30.07,29.72,6,1,7,0.18